Location: Glencliff
(36.1226°N, 86.7183°W)
Time: 22:37:10
(UTC+00:00)

USA 215 - Pass Details

Date: 25 August 2019
Orbit: 1102 x 1106 km, 123.0° (Epoch: 30 August)

Event Time Altitude Azimuth Distance (km) Brightness Sun altitude
Rises 07:51:43 0° 37° (NE) 3,922 7.2 -34.9°
Reaches altitude 10° 07:54:29 10° 28° (NNE) 2,963 6.3 -34.5°
Maximum altitude 08:00:03 31° 329° (NNW) 1,823 4.5 -33.8°
Enters shadow 08:00:46 30° 317° (NW) 1,847 4.4 -33.7°
